Details From SBBI - Curitiba Bacacheri
To SBLO - Londrina
Flight Number -
Tags Routegen Generated
Created
Modified
Stats Distance 162 nm / 300 km
Max Altitude 800 ft / 244 m
Waypoints 8
Social Downloads 3
Likes 0
Share VATSIM

Download

Looking for another format? Having issues loading an existing format? Contact us
Advertisement - Login to hide

Notes

Departing runway 33 SBBI. Arriving runway 11 SBLO.

Route

SBBI -25.33_-049.27 -25.29_-049.31 -24.61_-049.92 -23.45_-050.97 -23.40_-050.00 -23.36_-051.05 SBLO

ID Type Via Altitude Latitude Longitude Leg Dist Tot Dist Heading (true) Name
O SBBI APT - 0 ft / 0 m -25.39926˚ -49.23469˚ - 0 nm - -
-25.33_-049.27 LATLON - 800 ft / 244 m -25.33237˚ -49.26525˚ 4 nm 4 nm 338° / 338° -
-25.29_-049.31 LATLON - 800 ft / 244 m -25.28964˚ -49.30846˚ 3 nm 7 nm 318° / 318° -
-24.61_-049.92 LATLON - 800 ft / 244 m -24.61312˚ -49.92370˚ 52 nm 60 nm 320° / 321° -
-23.45_-050.97 LATLON - 800 ft / 244 m -23.44968˚ -50.96703˚ 90 nm 150 nm 320° / 321° -
-23.40_-050.00 LATLON - 800 ft / 244 m -23.39941˚ -50.99832˚ 3 nm 154 nm 330° / 330° -
-23.36_-051.05 LATLON - 800 ft / 244 m -23.36198˚ -51.04644˚ 3 nm 157 nm 310° / 310° -
O SBLO APT - 0 ft / 0 m -23.33691˚ -51.12038˚ 4 nm 162 nm 290° / 290° -

Altitude Profile

Advertisement - Login to hide

Weather


0- 5 10 15 20 25 30 35+ Temperature / ° C

Clouds and Precipitation
Forecast for 2018-05-24 06:00 UTC. Updated 2 hours ago

Ground ~20,000 ft ~40,000 ft Winds

SBBI

Details ICAO SBBI (BFH)
Name Curitiba Bacacheri
Region Brazil
Timezone America/Sao_Paulo (UTC-3.0)
Stats Elevation 3,057 ft / 932 m (AMSL)
Location -25.405079° -49.232036°
Runways 1
Magnetic Variation 19.676° W

METAR

Not found

TAF

TAF SBBI 240130Z 2406/2418 10005KT 9999 BKN005 TN08/2408Z TX18/2417Z PROB40 TEMPO 2408/2411 4000 BR BKN004 BECMG 2411/2413 BKN012 BECMG 2413/2415 FEW025 RMK PEB

Decode

Departure Runways

ID Width Length Bearing (true) Bearing (mag) Surface Threshold Offset Overrun Length
18 98 ft / 30 m 4,591 ft / 1,399 m 157.57° 177.25° Asphalt 527 ft / 161 m 0 ft / 0 m
36 98 ft / 30 m 4,591 ft / 1,399 m 337.56° 357.24° Asphalt 350 ft / 107 m 0 ft / 0 m

SBLO

Details ICAO SBLO (LDB)
Name Londrina
Region Brazil
Timezone America/Sao_Paulo (UTC-3.0)
Stats Elevation 1,867 ft / 569 m (AMSL)
Location -23.333624° -51.130072°
Runways 1
Magnetic Variation 19.139° W

METAR

SBLO 240600Z 14001KT CAVOK 15/12 Q1023

Decode

TAF

TAF SBLO 240130Z 2406/2418 00000KT CAVOK TN13/2408Z TX23/2417Z BECMG 2406/2408 15005KT RMK PEB

Decode

Destination Runways

ID Width Length Bearing (true) Bearing (mag) Surface Threshold Offset Overrun Length
13 148 ft / 45 m 6,926 ft / 2,111 m 110.29° 129.43° Asphalt 975 ft / 297 m 0 ft / 0 m
31 148 ft / 45 m 6,926 ft / 2,111 m 290.28° 309.42° Asphalt 0 ft / 0 m 100 ft / 30 m

Popular Alternatives